Regional Weather Roundup
Issued by NWS

Home | Current Version | Previous Version | Text Only | Print | Product List | Glossary Off
Versions: 1 2 3 4 5 6 7 8 9 10 11 12 13 14 15 16 17 18 19 20 21 22 23 24 25 26 27 28 29 30 31 32 33 34 35 36 37 38 39 40 41 42 43 44 45 46 47 48 49 50

000
ASUS45 KTFX 270519
RWRMT
MONTANA HOURLY WEATHER ROUNDUP
NATIONAL WEATHER SERVICE GREAT FALLS MT
1019 PM MST THU FEB 26 2015

NOTE: "FAIR" INDICATES FEW OR NO CLOUDS BELOW 12000 FEET WITH NO
SIGNIFICANT WEATHER AND/OR OBSTRUCTIONS TO VISIBILITY.

* THESE STATIONS ARE NOT UNDER NWS QUALITY CONTROL. THEY DO NOT
   REPORT WEATHER SUCH AS PRECIPITATION OR FOG.

MTZ001>007-043-270600-
WEST OF THE DIVIDE
CITY           SKY/WX    TMP DP  RH WIND       PRES   REMARKS
KALISPELL      MOCLDY    25  19  78 CALM      29.96F
MISSOULA       MOCLDY    28  14  56 E15       29.97F WCI  16
BUTTE          PTCLDY    12   9  88 S7        29.94F WCI   1
MULLAN PASS    CLOUDY    21  16  81 SE6       29.84F WCI  13
* ANACONDA     PTCLDY    12   7  80 SW7        N/A   WCI   1
* ESSEX        N/A       15   7  70 SE11       N/A   WCI   2
* EUREKA APT   MOCLDY    34  16  48 SE12      29.97S WCI  25
* HAMILTON APT PTCLDY    25  18  75 SE5       29.94S WCI  19
* LIBBY APT    MOCLDY    30  21  69 CALM      29.95F
* LINCOLN      N/A       13   4  67 NE3        N/A
* LOOKOUT PASS N/A       29  20  69 S2         N/A
* POLSON       N/A       24  16  71 N/A        N/A
* RONAN APT    MOCLDY    27  23  85 N/A        N/A
* SEELEY LAKE  N/A       11   7  84 N1         N/A
* THOMP F APT  MOCLDY    16   5  62 N3         N/A
* YAAK HILL    N/A       36  21  54 VRB3       N/A
$$

MTZ008-052>055-270600-
SOUTHWEST MONTANA
CITY           SKY/WX    TMP DP  RH WIND       PRES   REMARKS
BOZEMAN        CLEAR     12   3  67 S7        30.04F WCI   1
DILLON         PTCLDY    12   7  80 CALM      29.96S
* W YELLOWSTON PTCLDY     7   0  73 N/A        N/A
* THREE FORKS  CLEAR     14   7  73 N/A        N/A
* BOULDER HILL N/A       11   4  73 S9         N/A   WCI  -2
* MONIDA PASS  N/A       12  10  92 W6         N/A   WCI   2
* RAYNOLDS PAS N/A        7   7 100 N8         N/A   WCI  -6
* WHITEHALL    N/A       15   7  70 E4G11      N/A
* WISE RIVER   N/A       18  10  71 SE8        N/A   WCI   8
$$

MTZ009>010-012-014-046-048-049-054-270600-
EAST SLOPES AND CENTRAL MONTANA
CITY           SKY/WX    TMP DP  RH WIND       PRES   REMARKS
CUT BANK       CLOUDY    10   7  88 SE12      30.03F WCI  -5
GREAT FALLS    PTCLDY     7   1  76 SE5       30.05F WCI  -2
HELENA         PTCLDY    14   9  80 W7        30.05S WCI   4
MALMSTROM AFB  CLEAR      5   1  83 E3        30.08F
* CONRAD       MOCLDY    12   5  73 E10        N/A   WCI  -1
* DEARBORN     N/A        7   3  83 SE2        N/A
* EAST GLACIER N/A       -3  -8  79 N1         N/A
* MONARCH      N/A        1  -4  79 S6         N/A   WCI -11
* PENDROY      N/A        5   3  91 SW8        N/A   WCI  -8
* ROGERS PASS  N/A       12   5  73 W3G9       N/A
* SWEET GRASS  N/A        8   6  91 S26G31     N/A   WCI -14
* WHITE SULPH  N/A        1  -6  72 S3G10      N/A
$$

MTZ011-013-016-021-035-040-045-047-050-051-270600-
NORTH CENTRAL MONTANA
CITY           SKY/WX    TMP DP  RH WIND       PRES   REMARKS
HAVRE          CLEAR      5   0  80 E6        30.18F WCI  -6
LEWISTOWN      PTCLDY     0  -8  68 SE8       30.07F WCI -14
* N BAR RANCH  CLEAR      5  -4  66 S17G37    30.09F WCI -14
* CHINOOK      CLEAR      3  -2  79 E12       30.22F WCI -14
* FORT BENTON  CLEAR     10   1  67 E9        30.15F WCI  -3
* CHESTER      N/A        8   1  73 SE6G13     N/A   WCI  -2
* DENTON       N/A        8  -2  63 SE14G19    N/A   WCI  -9
* GEYSER       N/A       -5  -9  82 S7         N/A   WCI -19
* JUDITH GAP   N/A        7   1  76 SE16       N/A   WCI -11
* LOMA         N/A       10   3  73 NE14       N/A   WCI  -6
$$

MTZ017>020-022>027-061-062-270600-
NORTHEAST MONTANA
CITY           SKY/WX    TMP DP  RH WIND       PRES   REMARKS
GLASGOW        CLEAR      3  -6  66 E10       30.34F WCI -12
GLENDIVE       CLEAR      3  -8  60 SE3       30.37F
JORDAN         CLEAR     28  19  69 N/A       29.85F VSB 3/4
SIDNEY         CLEAR     -2 -15  53 CALM      30.45F
WOLF POINT     CLEAR      3  -2  79 NE3       30.41F
* BEAVER HILL  N/A        1  -6  72 SE9        N/A   WCI -14
* CIRCLE       N/A        3  -3  76 N/A        N/A
* LINDSAY DVD  N/A        0  -7  72 SE3        N/A
* NAVAJO       N/A       -3  -8  79 S9         N/A   WCI -19
* PLENTYWOOD A CLEAR     -4 -11  71 E7        30.38F WCI -18
* POPLAR APT   CLEAR      3  -2  79 E7        30.42F WCI  -9
* SACO         N/A        4  -4  69 SE8        N/A   WCI  -9
$$

MTZ028>042-056>058-270600-
SOUTHCENTRAL AND SOUTHEAST MONTANA
CITY           SKY/WX    TMP DP  RH WIND       PRES   REMARKS
BAKER          CLEAR     -2  -8  75 SE3       30.36F
BILLINGS       CLEAR      7   0  73 E5        30.19F WCI  -2
LIVINGSTON     CLOUDY    10   1  67 E9        30.08F WCI  -3
MILES CITY     CLEAR      1  -4  79 S8        30.35F WCI -13
* BIG TIMBER A PTCLDY     7   1  76 E6        30.11F WCI  -4
* FORSYTH APT  CLEAR      3  -4  72 S6        30.32F WCI  -8
* LAUREL APT   PTCLDY     1  -8  65 N/A        N/A
* ROUNDUP APT  CLEAR      7  -6  55 N/A        N/A
* HYSHAM       N/A        4  -5  66 SE4        N/A
* LAME DEER    N/A       -2  -7  79 SE10       N/A   WCI -18
* REED POINT   N/A        4   0  83 SE3        N/A
* ROSCOE HILL  N/A        0  -5  79 E1         N/A
$$

REGIONAL REPORTS...DAKOTAS
CITY           SKY/WX    TMP DP  RH WIND       PRES   REMARKS
WILLISTON      CLEAR     -8 -11  86 CALM      30.44F
DICKINSON      CLEAR     -6 -11  78 S6        30.38F WCI -19
BEACH          CLEAR     -2  -8  75 S3        30.38F
CROSBY         CLEAR    -13 -18  78 S10       30.43F WCI -32
TIOGA          CLEAR    -20 -22  90 CALM      30.43F
WATFORD CITY   CLEAR     -9 -15  74 CALM      30.42F
BISMARCK       CLEAR     -6 -13  71 CALM      30.50F
GRAND FORKS    CLEAR     -6 -11  78 W7        30.49F WCI -20
FARGO          CLEAR     -4 -11  71 W8        30.52S WCI -19
BUFFALO SD     CLEAR      1  -8  65 S5        30.28F WCI  -9
RAPID CITY     CLEAR     -9 -15  74 NW5       30.37F WCI -21
$$

REGIONAL REPORTS...WYOMING/IDAHO/WASHINGTON
CITY           SKY/WX    TMP DP  RH WIND       PRES   REMARKS
GILLETTE       PTCLDY    -2  -8  75 S7        30.21F WCI -15
SHERIDAN       PTCLDY    -6 -11  78 CALM      30.18F
CODY           PTCLDY     1  -2  87 S5        30.06F WCI  -9
YELLOWSTONE LA PTCLDY     0  -8  68 CALM      29.87F
SALMON         CLOUDY    30  18  61 N5        29.89F WCI  25
MULLAN PASS    CLOUDY    21  16  81 SE6       29.84S WCI  13
SAND POINT     CLOUDY    32  32 100 CALM      29.95F
SPOKANE        CLOUDY    36  34  92 CALM      29.92F
$$

REGIONAL REPORTS...ALBERTA
CITY           SKY/WX    TMP DP  RH WIND       PRES   REMARKS
CALGARY        MOCLDY    12   7  80 S6        29.99F WCI   2
LETHBRIDGE     PTCLDY    12   9  88 SW5       30.02F WCI   4
MEDICINE HAT   CLEAR     10   1  67 VRB6      30.16F
EDMONTON       CLOUDY     5   0  80 CALM      30.12F
WATERTON GATE  N/A        5   1  83 N1         N/A
CARDSTON       N/A        9   5  84 S5         N/A
MILK RIVER     N/A        9   7  91 S16        N/A   WCI  -8
$$

REGIONAL REPORTS...SASKATCHEWAN
CITY           SKY/WX    TMP DP  RH WIND       PRES   REMARKS
SWIFT CURRENT  CLEAR      1  -6  72 S21       30.19F WCI -21
REGINA         N/A      -11 -15  82 SE9       30.39F WCI -29
VAL MARIE      N/A        5  -2  72 S15        N/A   WCI -13
ASSINIBOIA     N/A       -8 -13  78 S5         N/A   WCI -20
CORONACH       N/A       -2  -8  75 SE6        N/A   WCI -14

$$



USA.gov is the U.S. government's official web portal to all federal, state and local government web resources and services.